• In United Kingdom
  • List of Countries
  • For 7 days
  • Water Temperature
  • Satellite Maps
  • Weather Map
  • Weather Widgets
  • user-avatar
    Login

    Hourly Weather Tskhaltubo

    Today, 17 August, Thursday

    Time Temperature Precipitation Wind Pressure Humidity
    00:00 +25°C° 0 mm 2 mps 742 mmHg 67%
    01:00 +25°C° 0 mm 2 mps 742 mmHg 63%
    02:00 +25°C° 0 mm 2 mps 742 mmHg 59%
    03:00 +25°C° 0 mm 2 mps 742 mmHg 55%
    04:00 +25°C° 0 mm 2 mps 742 mmHg 55%
    05:00 +25°C° 0 mm 2 mps 741 mmHg 55%
    06:00 +24°C° 0 mm 3 mps 741 mmHg 54%
    07:00 +26°C° 0 mm 3 mps 741 mmHg 51%
    08:00 +28°C° 0 mm 3 mps 741 mmHg 48%
    09:00 +30°C° 0 mm 3 mps 741 mmHg 44%
    10:00 +31°C° 0 mm 3 mps 741 mmHg 43%
    11:00 +33°C° 0 mm 3 mps 740 mmHg 41%
    12:00 +34°C° 0 mm 3 mps 740 mmHg 40%
    13:00 +35°C° 0 mm 3 mps 740 mmHg 40%
    14:00 +35°C° 0 mm 3 mps 740 mmHg 40%
    15:00 +35°C° 0 mm 2 mps 740 mmHg 40%
    16:00 +34°C° 0 mm 2 mps 740 mmHg 46%
    17:00 +32°C° 0 mm 2 mps 740 mmHg 53%
    18:00 +30°C° 0 mm 1 mps 740 mmHg 59%
    19:00 +29°C° 0 mm 2 mps 740 mmHg 61%
    20:00 +27°C° 0 mm 2 mps 741 mmHg 64%
    21:00 +26°C° 0 mm 2 mps 741 mmHg 66%
    22:00 +25°C° 0 mm 2 mps 741 mmHg 66%
    23:00 +25°C° 0 mm 2 mps 741 mmHg 65%

    Tomorrow, 18 August, Friday

    Time Temperature Precipitation Wind Pressure Humidity
    00:00 +24°C° 0 mm 2 mps 741 mmHg 65%
    01:00 +24°C° 0 mm 2 mps 741 mmHg 65%
    02:00 +24°C° 0 mm 2 mps 741 mmHg 64%
    03:00 +24°C° 0 mm 2 mps 741 mmHg 63%
    04:00 +24°C° 0 mm 2 mps 741 mmHg 63%
    05:00 +23°C° 0 mm 2 mps 741 mmHg 63%
    06:00 +23°C° 0 mm 2 mps 741 mmHg 63%
    07:00 +26°C° 0 mm 2 mps 741 mmHg 57%
    08:00 +28°C° 0 mm 2 mps 741 mmHg 51%
    09:00 +31°C° 0 mm 2 mps 741 mmHg 44%
    10:00 +32°C° 0 mm 2 mps 741 mmHg 41%
    11:00 +35°C° 0 mm 2 mps 741 mmHg 38%
    12:00 +36°C° 0 mm 2 mps 741 mmHg 35%
    13:00 +36°C° 0 mm 2 mps 741 mmHg 36%
    14:00 +36°C° 0 mm 2 mps 741 mmHg 37%
    15:00 +36°C° 0 mm 3 mps 741 mmHg 38%
    16:00 +35°C° 0 mm 2 mps 741 mmHg 48%
    17:00 +32°C° 0 mm 2 mps 741 mmHg 57%
    18:00 +30°C° 0 mm 2 mps 741 mmHg 67%
    19:00 +28°C° 0.1 mm 1 mps 742 mmHg 73%
    20:00 +27°C° 0.1 mm 1 mps 742 mmHg 79%
    21:00 +25°C° 0.1 mm 1 mps 743 mmHg 85%
    22:00 +25°C° 0.1 mm 1 mps 743 mmHg 82%
    23:00 +24°C° 0.1 mm 2 mps 743 mmHg 79%

    Day after tomorrow, 19 August, Saturday

    Time Temperature Precipitation Wind Pressure Humidity
    00:00 +24°C° 0.1 mm 2 mps 743 mmHg 77%
    01:00 +24°C° 0 mm 2 mps 743 mmHg 73%
    02:00 +24°C° 0 mm 2 mps 743 mmHg 68%
    03:00 +24°C° 0 mm 2 mps 743 mmHg 64%
    04:00 +24°C° 0 mm 2 mps 743 mmHg 63%
    05:00 +24°C° 0 mm 2 mps 743 mmHg 61%
    06:00 +24°C° 0 mm 2 mps 744 mmHg 59%
    07:00 +26°C° 0 mm 2 mps 743 mmHg 52%
    08:00 +29°C° 0 mm 2 mps 743 mmHg 46%
    09:00 +32°C° 0 mm 2 mps 743 mmHg 39%
    10:00 +34°C° 0 mm 2 mps 743 mmHg 36%
    11:00 +36°C° 0 mm 2 mps 743 mmHg 32%
    12:00 +37°C° 0 mm 2 mps 743 mmHg 29%
    13:00 +38°C° 0 mm 2 mps 743 mmHg 29%
    14:00 +38°C° 0 mm 2 mps 743 mmHg 30%
    15:00 +38°C° 0 mm 2 mps 742 mmHg 30%
    16:00 +36°C° 0 mm 2 mps 742 mmHg 38%
    17:00 +34°C° 0 mm 2 mps 743 mmHg 47%
    18:00 +31°C° 0 mm 1 mps 743 mmHg 55%
    19:00 +30°C° 0 mm 1 mps 743 mmHg 58%
    20:00 +28°C° 0 mm 2 mps 744 mmHg 60%
    21:00 +26°C° 0 mm 2 mps 744 mmHg 62%
    22:00 +26°C° 0 mm 2 mps 744 mmHg 58%
    23:00 +25°C° 0 mm 2 mps 744 mmHg 54%

    20 August, Sunday

    Time Temperature Precipitation Wind Pressure Humidity
    00:00 +25°C° 0 mm 2 mps 744 mmHg 50%
    01:00 +25°C° 0 mm 2 mps 744 mmHg 48%
    02:00 +25°C° 0 mm 2 mps 744 mmHg 45%
    03:00 +25°C° 0 mm 2 mps 744 mmHg 43%
    04:00 +24°C° 0 mm 2 mps 744 mmHg 44%
    05:00 +24°C° 0 mm 2 mps 744 mmHg 45%
    06:00 +24°C° 0 mm 2 mps 744 mmHg 46%
    07:00 +27°C° 0 mm 2 mps 744 mmHg 41%
    08:00 +29°C° 0 mm 2 mps 743 mmHg 37%
    09:00 +32°C° 0 mm 2 mps 743 mmHg 33%
    10:00 +35°C° 0 mm 2 mps 743 mmHg 30%
    11:00 +36°C° 0 mm 2 mps 743 mmHg 27%
    12:00 +38°C° 0 mm 2 mps 742 mmHg 24%
    13:00 +38°C° 0 mm 2 mps 742 mmHg 24%
    14:00 +38°C° 0 mm 2 mps 742 mmHg 25%
    15:00 +38°C° 0 mm 3 mps 742 mmHg 25%
    16:00 +36°C° 0 mm 2 mps 742 mmHg 34%
    17:00 +34°C° 0 mm 2 mps 742 mmHg 42%
    18:00 +31°C° 0 mm 1 mps 742 mmHg 51%
    19:00 +29°C° 0 mm 1 mps 743 mmHg 53%
    20:00 +27°C° 0 mm 1 mps 743 mmHg 55%
    21:00 +25°C° 0 mm 1 mps 744 mmHg 56%
    22:00 +25°C° 0 mm 2 mps 744 mmHg 53%
    23:00 +25°C° 0 mm 2 mps 744 mmHg 49%

    21 August, Monday

    Time Temperature Precipitation Wind Pressure Humidity
    00:00 +24°C° 0 mm 2 mps 744 mmHg 45%
    01:00 +24°C° 0 mm 2 mps 744 mmHg 43%
    02:00 +24°C° 0 mm 2 mps 744 mmHg 41%
    03:00 +24°C° 0 mm 2 mps 743 mmHg 39%
    04:00 +24°C° 0 mm 2 mps 743 mmHg 40%
    05:00 +23°C° 0 mm 2 mps 743 mmHg 41%
    06:00 +23°C° 0 mm 2 mps 743 mmHg 42%
    07:00 +26°C° 0 mm 2 mps 743 mmHg 39%
    08:00 +29°C° 0 mm 2 mps 743 mmHg 35%
    09:00 +32°C° 0 mm 1 mps 743 mmHg 31%
    10:00 +34°C° 0 mm 1 mps 743 mmHg 29%
    11:00 +36°C° 0 mm 1 mps 742 mmHg 26%
    12:00 +37°C° 0 mm 1 mps 742 mmHg 24%
    13:00 +38°C° 0 mm 2 mps 742 mmHg 24%
    14:00 +39°C° 0 mm 2 mps 741 mmHg 24%
    15:00 +39°C° 0 mm 2 mps 741 mmHg 24%
    16:00 +37°C° 0 mm 2 mps 741 mmHg 33%
    17:00 +34°C° 0 mm 1 mps 741 mmHg 41%
    18:00 +32°C° 0 mm 1 mps 741 mmHg 50%
    19:00 +30°C° 0 mm 1 mps 741 mmHg 50%
    20:00 +28°C° 0 mm 1 mps 742 mmHg 51%
    21:00 +27°C° 0 mm 2 mps 742 mmHg 51%
    22:00 +26°C° 0 mm 2 mps 742 mmHg 49%
    23:00 +26°C° 0 mm 2 mps 742 mmHg 47%

    22 August, Tuesday

    Time Temperature Precipitation Wind Pressure Humidity
    00:00 +25°C° 0 mm 2 mps 742 mmHg 46%
    01:00 +25°C° 0 mm 2 mps 742 mmHg 43%
    02:00 +25°C° 0 mm 2 mps 742 mmHg 41%
    03:00 +24°C° 0 mm 2 mps 742 mmHg 38%
    04:00 +24°C° 0 mm 2 mps 742 mmHg 39%
    05:00 +24°C° 0 mm 2 mps 742 mmHg 39%
    06:00 +24°C° 0 mm 2 mps 743 mmHg 39%
    07:00 +27°C° 0 mm 2 mps 742 mmHg 36%
    08:00 +29°C° 0 mm 1 mps 742 mmHg 34%
    09:00 +32°C° 0 mm 1 mps 742 mmHg 31%
    10:00 +34°C° 0 mm 1 mps 742 mmHg 30%
    11:00 +36°C° 0 mm 2 mps 742 mmHg 28%
    12:00 +37°C° 0 mm 2 mps 741 mmHg 26%
    13:00 +37°C° 0 mm 2 mps 741 mmHg 28%
    14:00 +37°C° 0 mm 3 mps 741 mmHg 31%
    15:00 +37°C° 0 mm 3 mps 741 mmHg 33%
    16:00 +35°C° 0 mm 2 mps 741 mmHg 44%
    17:00 +32°C° 0 mm 2 mps 741 mmHg 55%
    18:00 +30°C° 0 mm 2 mps 741 mmHg 65%
    19:00 +28°C° 0 mm 1 mps 741 mmHg 73%
    20:00 +26°C° 0 mm 1 mps 742 mmHg 81%
    21:00 +24°C° 0 mm 1 mps 742 mmHg 89%
    22:00 +24°C° 0 mm 1 mps 742 mmHg 86%
    23:00 +24°C° 0 mm 1 mps 743 mmHg 83%
    Show more